Hamilton, OH

7:43 PM EDT on May 23, 2017 (GMT -0400)
Butler County Regional

Weather History for KHAO - March, 2013

Change the Weather History Date:

Tuesday, March 26, 2013

  Actual Average (KLUK) Record (KLUK)
Temperature  
Mean Temperature 38 °F -  
Max Temperature 44 °F 55 °F 80 °F (1967)
Min Temperature 32 °F 35 °F 18 °F (2014)
Degree Days  
Heating Degree Days 27    
Moisture  
Dew Point 28 °F    
Average Humidity 76    
Maximum Humidity 89    
Minimum Humidity 55    
Precipitation  
Precipitation 0.00 in - - ()
Sea Level Pressure  
Sea Level Pressure 30.11 in    
Wind  
Wind Speed 9 mph (WNW)    
Max Wind Speed 17 mph    
Max Gust Speed 23 mph    
Visibility 9 miles    
Events Snow    
Averages and records for this station are not official NWS values.
T = Trace of Precipitation, MM = Missing Value Source: NWS Daily Summary

Daily Weather History Graph

Daily Weather History Graph

Search for Another Location

Airport or City:

Trip Planner

Search our weather history database for the weather conditions in past years. The results will help you decide how hot, cold, wet, or windy it might be!

Date:

Astronomy

Mar. 26, 2013 Rise Set
Actual Time 7:31 AM EDT 7:56 PM EDT
Civil Twilight 7:04 AM EDT 8:23 PM EDT
Nautical Twilight 6:33 AM EDT 8:54 PM EDT
Astronomical Twilight 6:00 AM EDT 9:27 PM EDT
Moon 7:32 PM EDT (3/26) 6:47 AM EDT (3/26)
Length of Visible Light 13h 18m
Length of Day
12h 24m
Waxing Gibbous, 99% of the Moon is Illuminated
Mar 26
Waxing Gibbous
Mar 27
Full
Apr 3
Last Quarter
Apr 10
New
Apr 18
First Quarter

Hourly Weather History & Observations

Time (EDT) Temp. Windchill Dew Point Humidity Pressure Visibility Wind Dir Wind Speed Gust Speed Precip Events Conditions
12:53 AM 33.1 °F 25.5 °F 28.9 °F 85% 29.99 in 5.0 mi WNW 9.2 mph - 0.00 in   Overcast
1:48 AM 33.8 °F 27.7 °F 28.4 °F 81% 29.98 in 10.0 mi WNW 6.9 mph - N/A   Overcast
1:53 AM 33.1 °F 26.9 °F 30.0 °F 89% 30.00 in 10.0 mi WNW 6.9 mph - N/A   Overcast
2:53 AM 33.1 °F 26.9 °F 28.9 °F 85% 30.00 in 10.0 mi NW 6.9 mph - N/A   Overcast
3:45 AM 33.8 °F 27.0 °F 28.4 °F 81% 29.99 in 7.0 mi NW 8.1 mph - 0.00 in Snow Light Snow
3:53 AM 33.1 °F 26.1 °F 28.9 °F 85% 30.01 in 8.0 mi WNW 8.1 mph - 0.00 in   Overcast
4:08 AM 33.8 °F 27.0 °F 28.4 °F 81% 30.00 in 8.0 mi WNW 8.1 mph - N/A   Overcast
4:23 AM 33.8 °F 27.0 °F 28.4 °F 81% 30.00 in 8.0 mi WNW 8.1 mph - N/A   Overcast
4:53 AM 33.1 °F 26.9 °F 28.9 °F 85% 30.02 in 10.0 mi WNW 6.9 mph - N/A   Overcast
5:53 AM 32.0 °F 26.4 °F 28.9 °F 88% 30.04 in 6.0 mi WNW 5.8 mph - 0.00 in Snow Light Snow
6:40 AM 32.0 °F 27.5 °F 28.4 °F 87% 30.03 in 10.0 mi WNW 4.6 mph - 0.00 in   Overcast
6:53 AM 32.0 °F 28.7 °F 28.9 °F 88% 30.05 in 10.0 mi West 3.5 mph - 0.00 in   Overcast
7:53 AM 33.1 °F 26.1 °F 28.9 °F 85% 30.08 in 10.0 mi WNW 8.1 mph - N/A   Overcast
8:53 AM 33.1 °F 24.9 °F 28.9 °F 85% 30.10 in 10.0 mi NW 10.4 mph - 0.00 in   Overcast
9:44 AM 33.8 °F 25.8 °F 30.2 °F 87% 30.10 in 4.0 mi NW 10.4 mph - 0.00 in Snow Light Snow
9:53 AM 34.0 °F 26.6 °F 30.0 °F 85% 30.12 in 7.0 mi NW 9.2 mph - 0.00 in Snow Light Snow
10:45 AM 35.6 °F 28.6 °F 30.2 °F 81% 30.12 in 10.0 mi NW 9.2 mph - 0.00 in   Overcast
10:53 AM 36.0 °F 28.5 °F 30.9 °F 82% 30.14 in 10.0 mi NW 10.4 mph - 0.00 in   Overcast
11:53 AM 37.0 °F 29.8 °F 30.0 °F 76% 30.16 in 10.0 mi NW 10.4 mph - N/A   Overcast
12:53 PM 39.0 °F 31.8 °F 30.9 °F 73% 30.16 in 10.0 mi WNW 11.5 mph - N/A   Overcast
1:53 PM 39.0 °F 31.4 °F 28.9 °F 67% 30.17 in 10.0 mi WNW 12.7 mph 18.4 mph N/A   Overcast
2:07 PM 39.2 °F 32.5 °F 30.2 °F 70% 30.15 in 10.0 mi WNW 10.4 mph 19.6 mph N/A   Overcast
2:53 PM 41.0 °F 34.7 °F 28.0 °F 60% 30.17 in 10.0 mi West 10.4 mph 19.6 mph N/A   Overcast
3:53 PM 44.1 °F 36.5 °F 28.9 °F 55% 30.17 in 10.0 mi NW 17.3 mph 23.0 mph N/A   Overcast
4:53 PM 39.9 °F 32.1 °F 26.1 °F 58% 30.17 in 10.0 mi WNW 13.8 mph - 0.00 in   Mostly Cloudy
5:53 PM 39.0 °F 31.8 °F 26.1 °F 60% 30.18 in 10.0 mi WNW 11.5 mph - N/A   Overcast
6:53 PM 39.0 °F 31.8 °F 27.0 °F 62% 30.20 in 10.0 mi WNW 11.5 mph - N/A   Overcast
7:53 PM 37.9 °F 30.9 °F 24.1 °F 57% 30.22 in 10.0 mi WNW 10.4 mph 20.7 mph N/A   Overcast
8:53 PM 37.0 °F 30.4 °F 25.0 °F 62% 30.24 in 10.0 mi WNW 9.2 mph - N/A   Overcast
9:53 PM 36.0 °F 29.6 °F 24.1 °F 62% 30.26 in 10.0 mi WNW 8.1 mph - N/A   Mostly Cloudy
10:53 PM 34.0 °F 29.8 °F 24.1 °F 67% 30.27 in 10.0 mi West 4.6 mph - N/A   Clear
11:53 PM 32.0 °F 27.5 °F 25.0 °F 75% 30.27 in 10.0 mi WSW 4.6 mph - N/A   Mostly Cloudy